AFR360 CYZF-CYYC

Flight info

Callsign AFR360
Flight time 1h 34m
Altitude 35000
Route YZF DCT 60N115W DCT 55N115W DCT MATIR Q925 ADVOX ADVOX9
Aircraft A321/M-SDE3FGHIRWY/LB1

Departure

Time 2026-05-06 01:00
Airport Yellowknife International Airport (CYZF)

Arrival

Time 2026-05-06 02:35
Airport Calgary International Airport (CYYC)
Time Latitude Longitude Altitude Speed Heading
2026-05-06 00:24 62.47004 -114.43806 685 ft 0 kts 162°
2026-05-06 00:56 62.47002 -114.43805 681 ft 1 kts 162°
2026-05-06 00:56 62.46964 -114.43815 681 ft 9 kts 226°
2026-05-06 00:56 62.46975 -114.43919 683 ft 7 kts 298°
2026-05-06 00:57 62.47002 -114.43989 682 ft 6 kts 323°
2026-05-06 00:57 62.47051 -114.44007 685 ft 8 kts 357°
2026-05-06 00:57 62.47103 -114.44013 685 ft 7 kts 357°
2026-05-06 00:57 62.47147 -114.44019 685 ft 6 kts 356°
2026-05-06 00:58 62.47186 -114.44026 684 ft 6 kts 354°
2026-05-06 00:58 62.47244 -114.44038 685 ft 8 kts 354°
2026-05-06 00:58 62.47293 -114.44075 682 ft 7 kts 323°
2026-05-06 00:58 62.47319 -114.44147 685 ft 6 kts 288°
2026-05-06 00:59 62.47319 -114.44262 685 ft 8 kts 267°
2026-05-06 00:59 62.47307 -114.44360 685 ft 5 kts 230°
2026-05-06 00:59 62.47281 -114.44385 684 ft 3 kts 192°
2026-05-06 00:59 62.47269 -114.44385 680 ft 0 kts 175°
2026-05-06 01:00 62.47259 -114.44383 683 ft 17 kts 175°
2026-05-06 01:00 62.46810 -114.44305 682 ft 107 kts 176°
2026-05-06 01:00 62.45859 -114.44144 940 ft 152 kts 173°
2026-05-06 01:00 62.44788 -114.44066 1913 ft 156 kts 182°
2026-05-06 01:01 62.43717 -114.44393 2891 ft 152 kts 186°
2026-05-06 01:01 62.42671 -114.44701 3392 ft 158 kts 185°
2026-05-06 01:01 62.41510 -114.44984 3652 ft 177 kts 185°
2026-05-06 01:01 62.40210 -114.45262 3930 ft 197 kts 185°
2026-05-06 01:02 62.38765 -114.45627 4109 ft 222 kts 186°
2026-05-06 01:02 62.37193 -114.46043 4582 ft 232 kts 187°
2026-05-06 01:02 62.35581 -114.46471 5160 ft 242 kts 187°
2026-05-06 01:02 62.33872 -114.46917 5731 ft 253 kts 187°
2026-05-06 01:03 62.32104 -114.47365 6454 ft 259 kts 187°
2026-05-06 01:03 62.30274 -114.47818 7122 ft 264 kts 187°
2026-05-06 01:03 62.28434 -114.48272 7779 ft 270 kts 187°
2026-05-06 01:03 62.26552 -114.48738 8446 ft 276 kts 187°
2026-05-06 01:04 62.24611 -114.49213 9102 ft 282 kts 188°
2026-05-06 01:04 62.22920 -114.49624 9658 ft 286 kts 188°
2026-05-06 01:04 62.20929 -114.50104 10230 ft 294 kts 188°
2026-05-06 01:04 62.18805 -114.50621 10376 ft 316 kts 188°
2026-05-06 01:05 62.16554 -114.51178 10531 ft 337 kts 188°
2026-05-06 01:05 62.14193 -114.51754 10905 ft 347 kts 188°
2026-05-06 01:05 62.11765 -114.52336 11442 ft 352 kts 188°
2026-05-06 01:05 62.09324 -114.52918 12001 ft 357 kts 188°
2026-05-06 01:06 62.06814 -114.53515 12545 ft 363 kts 188°
2026-05-06 01:06 62.04281 -114.54118 13076 ft 369 kts 188°
2026-05-06 01:06 62.01720 -114.54728 13594 ft 374 kts 188°
2026-05-06 01:06 61.99103 -114.55348 14104 ft 380 kts 188°
2026-05-06 01:07 61.96473 -114.55968 14584 ft 384 kts 188°
2026-05-06 01:07 61.93794 -114.56602 15110 ft 387 kts 188°
2026-05-06 01:07 61.91120 -114.57241 15611 ft 390 kts 188°
2026-05-06 01:07 61.88421 -114.57889 16119 ft 393 kts 188°
2026-05-06 01:08 61.85668 -114.58548 16615 ft 397 kts 188°
2026-05-06 01:08 61.82919 -114.59202 17099 ft 399 kts 189°
2026-05-06 01:08 61.80161 -114.59854 17582 ft 402 kts 188°
2026-05-06 01:08 61.77364 -114.60511 18061 ft 405 kts 189°
2026-05-06 01:09 61.74542 -114.61176 18511 ft 408 kts 189°
2026-05-06 01:09 61.71741 -114.61836 18923 ft 411 kts 189°
2026-05-06 01:09 61.68860 -114.62511 19333 ft 413 kts 189°
2026-05-06 01:09 61.66035 -114.63172 19727 ft 415 kts 189°
2026-05-06 01:10 61.63138 -114.63849 20108 ft 417 kts 189°
2026-05-06 01:10 61.60277 -114.64519 20480 ft 419 kts 189°
2026-05-06 01:10 61.57370 -114.65201 20843 ft 421 kts 189°
2026-05-06 01:10 61.54455 -114.65882 21210 ft 423 kts 189°
2026-05-06 01:11 61.51523 -114.66565 21567 ft 425 kts 189°
2026-05-06 01:11 61.48540 -114.67253 21933 ft 427 kts 189°
2026-05-06 01:11 61.45602 -114.67926 22287 ft 429 kts 189°
2026-05-06 01:11 61.42625 -114.68604 22645 ft 431 kts 189°
2026-05-06 01:12 61.39614 -114.69290 23006 ft 433 kts 189°
2026-05-06 01:12 61.36653 -114.69971 23359 ft 435 kts 189°
2026-05-06 01:12 61.33638 -114.70667 23709 ft 437 kts 189°
2026-05-06 01:12 61.30605 -114.71367 23999 ft 440 kts 189°
2026-05-06 01:13 61.27517 -114.72077 24290 ft 442 kts 190°
2026-05-06 01:13 61.24501 -114.72768 24560 ft 444 kts 190°
2026-05-06 01:13 61.21419 -114.73473 24831 ft 447 kts 190°
2026-05-06 01:13 61.18270 -114.74188 25120 ft 449 kts 190°
2026-05-06 01:14 61.12013 -114.75598 25668 ft 455 kts 190°
2026-05-06 01:14 61.08865 -114.76307 25940 ft 457 kts 190°
2026-05-06 01:14 61.05744 -114.77008 26206 ft 459 kts 190°
2026-05-06 01:15 61.02564 -114.77715 26463 ft 462 kts 190°
2026-05-06 01:15 60.99345 -114.78433 26724 ft 464 kts 191°
2026-05-06 01:15 60.96133 -114.79153 26978 ft 467 kts 191°
2026-05-06 01:15 60.92891 -114.79877 27233 ft 469 kts 191°
2026-05-06 01:16 60.89641 -114.80596 27487 ft 471 kts 191°
2026-05-06 01:16 60.86360 -114.81319 27738 ft 474 kts 191°
2026-05-06 01:16 60.83099 -114.82043 27984 ft 476 kts 191°
2026-05-06 01:16 60.79774 -114.82787 28229 ft 478 kts 191°
2026-05-06 01:17 60.76459 -114.83528 28484 ft 481 kts 191°
2026-05-06 01:17 60.73143 -114.84264 28716 ft 483 kts 191°
2026-05-06 01:17 60.69788 -114.85001 28951 ft 485 kts 191°
2026-05-06 01:17 60.66411 -114.85739 29184 ft 488 kts 191°
2026-05-06 01:18 60.63026 -114.86480 29408 ft 490 kts 191°
2026-05-06 01:18 60.59631 -114.87222 29626 ft 492 kts 191°
2026-05-06 01:18 60.56270 -114.87958 29832 ft 494 kts 191°
2026-05-06 01:18 60.52818 -114.88707 30035 ft 496 kts 191°
2026-05-06 01:19 60.49393 -114.89447 30209 ft 498 kts 191°
2026-05-06 01:19 60.45928 -114.90196 30372 ft 500 kts 191°
2026-05-06 01:19 60.42490 -114.90936 30520 ft 501 kts 191°
2026-05-06 01:19 60.39006 -114.91685 30696 ft 502 kts 191°
2026-05-06 01:20 60.35535 -114.92433 30928 ft 502 kts 191°
2026-05-06 01:20 60.32086 -114.93172 31145 ft 502 kts 191°
2026-05-06 01:20 60.28615 -114.93912 31363 ft 502 kts 192°
2026-05-06 01:20 60.25133 -114.94658 31589 ft 502 kts 192°
2026-05-06 01:21 60.21656 -114.95405 31809 ft 502 kts 192°
2026-05-06 01:21 60.18200 -114.96145 32024 ft 502 kts 192°
2026-05-06 01:21 60.14724 -114.96881 32245 ft 502 kts 192°
2026-05-06 01:21 60.11242 -114.97618 32470 ft 502 kts 192°
2026-05-06 01:22 60.07781 -114.98360 32693 ft 502 kts 192°
2026-05-06 01:22 60.04311 -114.99101 32920 ft 502 kts 192°
2026-05-06 01:22 60.00840 -114.99827 33140 ft 502 kts 191°
2026-05-06 01:22 59.97321 -115.00030 33345 ft 507 kts 185°
2026-05-06 01:23 59.93797 -115.00021 33555 ft 507 kts 185°
2026-05-06 01:23 59.90248 -115.00011 33767 ft 507 kts 185°
2026-05-06 01:23 59.86722 -115.00003 33974 ft 507 kts 185°
2026-05-06 01:23 59.83194 -114.99998 34173 ft 507 kts 185°
2026-05-06 01:24 59.79662 -114.99996 34354 ft 507 kts 185°
2026-05-06 01:24 59.76139 -114.99994 34536 ft 507 kts 185°
2026-05-06 01:24 59.72640 -114.99992 34713 ft 506 kts 185°
2026-05-06 01:24 59.69091 -114.99993 34911 ft 506 kts 185°
2026-05-06 01:25 59.65572 -114.99996 35042 ft 506 kts 185°
2026-05-06 01:25 59.62106 -114.99997 35076 ft 502 kts 185°
2026-05-06 01:25 59.55191 -115.00000 35074 ft 500 kts 185°
2026-05-06 01:26 59.48242 -114.99995 35077 ft 500 kts 185°
2026-05-06 01:26 59.41317 -114.99992 35071 ft 500 kts 185°
2026-05-06 01:27 59.34333 -114.99992 35076 ft 501 kts 185°
2026-05-06 01:27 59.27365 -115.00004 35075 ft 501 kts 185°
2026-05-06 01:28 59.20372 -115.00009 35077 ft 501 kts 185°
2026-05-06 01:28 59.13404 -115.00000 35079 ft 501 kts 185°
2026-05-06 01:29 59.06480 -114.99997 35080 ft 501 kts 185°
2026-05-06 01:29 58.99488 -114.99999 35080 ft 501 kts 185°
2026-05-06 01:30 58.92512 -114.99998 35080 ft 501 kts 185°
2026-05-06 01:30 58.85538 -115.00007 35086 ft 502 kts 185°
2026-05-06 01:31 58.78559 -115.00004 35086 ft 502 kts 185°
2026-05-06 01:31 58.71573 -115.00002 35087 ft 502 kts 185°
2026-05-06 01:32 58.64608 -115.00000 35082 ft 502 kts 185°
2026-05-06 01:32 58.57591 -115.00005 35078 ft 502 kts 185°
2026-05-06 01:33 58.50633 -115.00001 35083 ft 502 kts 185°
2026-05-06 01:33 58.43581 -114.99994 35084 ft 503 kts 185°
2026-05-06 01:34 58.36639 -114.99999 35083 ft 503 kts 185°
2026-05-06 01:34 58.29633 -115.00003 35077 ft 503 kts 185°
2026-05-06 01:35 58.22588 -115.00007 35069 ft 503 kts 185°
2026-05-06 01:35 58.15636 -115.00005 35074 ft 504 kts 185°
2026-05-06 01:36 58.08632 -115.00006 35069 ft 504 kts 185°
2026-05-06 01:36 58.01619 -115.00005 35065 ft 504 kts 185°
2026-05-06 01:37 57.94593 -115.00001 35060 ft 504 kts 185°
2026-05-06 01:37 57.87595 -115.00006 35060 ft 505 kts 185°
2026-05-06 01:38 57.80556 -115.00001 35057 ft 505 kts 185°
2026-05-06 01:38 57.73519 -115.00004 35064 ft 505 kts 185°
2026-05-06 01:39 57.66506 -115.00001 35064 ft 506 kts 185°
2026-05-06 01:39 57.59465 -114.99993 35064 ft 506 kts 185°
2026-05-06 01:40 57.52428 -114.99988 35074 ft 506 kts 185°
2026-05-06 01:40 57.45387 -114.99997 35071 ft 506 kts 185°
2026-05-06 01:41 57.38331 -115.00003 35076 ft 507 kts 185°
2026-05-06 01:41 57.31299 -114.99999 35082 ft 507 kts 185°
2026-05-06 01:42 57.24603 -114.99996 35081 ft 507 kts 185°
2026-05-06 01:42 57.17539 -114.99992 35084 ft 508 kts 185°
2026-05-06 01:43 57.10488 -114.99986 35090 ft 508 kts 185°
2026-05-06 01:43 57.03367 -114.99991 35093 ft 509 kts 185°
2026-05-06 01:44 56.96336 -115.00003 35101 ft 509 kts 184°
2026-05-06 01:44 56.89259 -114.99994 35103 ft 510 kts 184°
2026-05-06 01:45 56.82160 -114.99992 35110 ft 510 kts 184°
2026-05-06 01:45 56.75067 -114.99990 35117 ft 511 kts 184°
2026-05-06 01:46 56.67959 -114.99985 35121 ft 511 kts 184°
2026-05-06 01:46 56.60822 -114.99989 35129 ft 511 kts 184°
2026-05-06 01:47 56.53660 -115.00003 35129 ft 511 kts 184°
2026-05-06 01:47 56.46617 -114.99990 35126 ft 511 kts 184°
2026-05-06 01:48 56.39473 -114.99996 35125 ft 511 kts 184°
2026-05-06 01:48 56.32352 -115.00002 35130 ft 512 kts 184°
2026-05-06 01:49 56.25244 -114.99995 35134 ft 512 kts 184°
2026-05-06 01:49 56.18106 -114.99982 35138 ft 513 kts 184°
2026-05-06 01:50 56.10974 -114.99987 35143 ft 513 kts 184°
2026-05-06 01:50 56.03845 -114.99997 35148 ft 514 kts 184°
2026-05-06 01:51 55.96682 -115.00005 35149 ft 514 kts 184°
2026-05-06 01:51 55.89505 -115.00006 35150 ft 515 kts 184°
2026-05-06 01:52 55.82331 -115.00018 35157 ft 516 kts 184°
2026-05-06 01:52 55.75155 -115.00000 35163 ft 516 kts 184°
2026-05-06 01:53 55.67961 -114.99983 35166 ft 516 kts 184°
2026-05-06 01:53 55.60823 -114.99986 35173 ft 516 kts 184°
2026-05-06 01:54 55.53645 -115.00009 35143 ft 516 kts 184°
2026-05-06 01:54 55.46430 -114.99994 35133 ft 517 kts 184°
2026-05-06 01:55 55.40449 -114.99970 35115 ft 517 kts 184°
2026-05-06 01:55 55.33231 -114.99974 35109 ft 517 kts 184°
2026-05-06 01:56 55.24869 -114.99991 35110 ft 517 kts 184°
2026-05-06 01:56 55.18850 -114.99994 35113 ft 517 kts 184°
2026-05-06 01:57 55.10488 -114.99993 35132 ft 517 kts 183°
2026-05-06 01:57 55.04464 -114.99979 35142 ft 517 kts 184°
2026-05-06 01:58 54.97251 -114.99996 35157 ft 517 kts 184°
2026-05-06 01:58 54.90056 -115.00203 35167 ft 517 kts 185°
2026-05-06 01:59 54.82868 -115.00482 35170 ft 517 kts 185°
2026-05-06 01:59 54.75691 -115.00738 35171 ft 517 kts 184°
2026-05-06 02:00 54.68504 -115.00908 35174 ft 517 kts 184°
2026-05-06 02:00 54.61291 -115.01079 35171 ft 517 kts 184°
2026-05-06 02:01 54.54099 -115.01270 35171 ft 518 kts 184°
2026-05-06 02:01 54.46908 -115.01497 35176 ft 518 kts 184°
2026-05-06 02:02 54.39688 -115.01703 35181 ft 518 kts 184°
2026-05-06 02:02 54.32465 -115.01917 35183 ft 519 kts 184°
2026-05-06 02:03 54.25268 -115.02108 35183 ft 519 kts 184°
2026-05-06 02:03 54.18035 -115.02309 35184 ft 520 kts 184°
2026-05-06 02:04 54.10829 -115.02496 35185 ft 520 kts 184°
2026-05-06 02:04 54.03538 -115.02689 35185 ft 520 kts 184°
2026-05-06 02:05 53.96348 -115.02886 35180 ft 520 kts 184°
2026-05-06 02:05 53.89079 -115.03100 35178 ft 521 kts 184°
2026-05-06 02:06 53.81821 -115.03302 35171 ft 521 kts 184°
2026-05-06 02:06 53.74559 -115.03484 35165 ft 522 kts 184°
2026-05-06 02:07 53.67326 -115.03675 35160 ft 522 kts 184°
2026-05-06 02:07 53.60067 -115.03867 35142 ft 522 kts 184°
2026-05-06 02:08 53.52757 -115.04054 35139 ft 523 kts 184°
2026-05-06 02:08 53.45465 -115.04240 35138 ft 523 kts 184°
2026-05-06 02:09 53.38212 -115.04441 35139 ft 523 kts 184°
2026-05-06 02:09 53.30943 -115.04640 35139 ft 523 kts 184°
2026-05-06 02:10 53.23673 -115.04840 35136 ft 523 kts 183°
2026-05-06 02:10 53.16386 -115.05047 35133 ft 523 kts 184°
2026-05-06 02:11 53.09111 -115.05236 35127 ft 524 kts 183°
2026-05-06 02:11 53.01765 -115.05418 35124 ft 524 kts 183°
2026-05-06 02:12 52.94529 -115.05596 35125 ft 524 kts 183°
2026-05-06 02:12 52.87226 -115.05772 35119 ft 525 kts 183°
2026-05-06 02:13 52.79870 -115.05971 35120 ft 525 kts 183°
2026-05-06 02:13 52.72632 -115.06156 35113 ft 525 kts 183°
2026-05-06 02:14 52.65336 -115.06342 35113 ft 525 kts 183°
2026-05-06 02:14 52.58009 -115.06551 35112 ft 525 kts 183°
2026-05-06 02:15 52.50693 -115.06728 34481 ft 529 kts 183°
2026-05-06 02:15 52.46987 -115.06813 33261 ft 541 kts 183°
2026-05-06 02:15 52.43252 -115.06900 32836 ft 532 kts 183°
2026-05-06 02:16 52.39552 -115.06989 32119 ft 531 kts 183°
2026-05-06 02:16 52.35848 -115.07086 31469 ft 528 kts 182°
2026-05-06 02:16 52.32192 -115.07176 30824 ft 527 kts 182°
2026-05-06 02:16 52.28542 -115.07261 30175 ft 525 kts 182°
2026-05-06 02:17 52.24922 -115.07351 29484 ft 522 kts 182°
2026-05-06 02:17 52.21283 -115.07439 28875 ft 517 kts 182°
2026-05-06 02:17 52.17706 -115.07529 28383 ft 510 kts 182°
2026-05-06 02:17 52.14192 -115.07620 27678 ft 508 kts 182°
2026-05-06 02:18 52.10676 -115.07707 27274 ft 499 kts 182°
2026-05-06 02:18 52.07239 -115.07764 26628 ft 493 kts 179°
2026-05-06 02:18 52.03834 -115.07159 25932 ft 486 kts 167°
2026-05-06 02:18 52.00639 -115.05665 25503 ft 477 kts 157°
2026-05-06 02:19 51.97658 -115.03376 25053 ft 467 kts 146°
2026-05-06 02:19 51.94984 -115.00494 24593 ft 458 kts 141°
2026-05-06 02:19 51.92397 -114.97546 24164 ft 451 kts 141°
2026-05-06 02:19 51.89846 -114.94648 23707 ft 445 kts 141°
2026-05-06 02:20 51.84854 -114.89028 22799 ft 430 kts 141°
2026-05-06 02:20 51.82439 -114.86320 22379 ft 423 kts 141°
2026-05-06 02:20 51.80031 -114.83619 21938 ft 417 kts 141°
2026-05-06 02:21 51.77639 -114.80936 21510 ft 411 kts 141°
2026-05-06 02:21 51.75317 -114.78330 21084 ft 406 kts 141°
2026-05-06 02:21 51.73004 -114.75734 20654 ft 402 kts 141°
2026-05-06 02:21 51.70722 -114.73191 20244 ft 399 kts 143°
2026-05-06 02:22 51.68325 -114.70915 19841 ft 406 kts 147°
2026-05-06 02:22 51.65862 -114.68693 19428 ft 406 kts 148°
2026-05-06 02:22 51.63369 -114.66493 19026 ft 404 kts 148°
2026-05-06 02:22 51.60924 -114.64368 18634 ft 401 kts 148°
2026-05-06 02:23 51.58469 -114.62244 18202 ft 398 kts 148°
2026-05-06 02:23 51.56052 -114.60145 17756 ft 395 kts 148°
2026-05-06 02:23 51.53609 -114.58009 17298 ft 393 kts 148°
2026-05-06 02:23 51.51243 -114.55930 16870 ft 390 kts 148°
2026-05-06 02:24 51.48884 -114.53859 16447 ft 387 kts 148°
2026-05-06 02:24 51.46530 -114.51796 16015 ft 384 kts 148°
2026-05-06 02:24 51.44163 -114.49726 15581 ft 381 kts 148°
2026-05-06 02:24 51.42054 -114.47885 15181 ft 379 kts 148°
2026-05-06 02:25 51.39727 -114.45855 14772 ft 377 kts 148°
2026-05-06 02:25 51.37452 -114.43875 14360 ft 375 kts 149°
2026-05-06 02:25 51.35920 -114.42543 14086 ft 373 kts 149°
2026-05-06 02:26 51.34231 -114.41078 13772 ft 373 kts 149°
2026-05-06 02:26 51.32008 -114.39152 13312 ft 367 kts 149°
2026-05-06 02:26 51.29789 -114.37224 12855 ft 364 kts 149°
2026-05-06 02:26 51.27588 -114.35311 12358 ft 355 kts 150°
2026-05-06 02:27 51.25423 -114.33436 11506 ft 348 kts 151°
2026-05-06 02:27 51.23305 -114.31604 10944 ft 346 kts 151°
2026-05-06 02:27 51.21205 -114.29789 10455 ft 344 kts 152°
2026-05-06 02:27 51.19130 -114.27996 10160 ft 326 kts 152°
2026-05-06 02:28 51.17235 -114.26355 10087 ft 300 kts 152°
2026-05-06 02:28 51.15427 -114.24792 9944 ft 288 kts 152°
2026-05-06 02:28 51.13656 -114.23269 9207 ft 299 kts 152°
2026-05-06 02:28 51.11773 -114.21656 8374 ft 310 kts 152°
2026-05-06 02:29 51.09896 -114.20047 8050 ft 297 kts 152°
2026-05-06 02:29 51.08165 -114.18562 8017 ft 266 kts 152°
2026-05-06 02:29 51.06593 -114.17247 8043 ft 249 kts 156°
2026-05-06 02:29 51.04956 -114.16474 8015 ft 242 kts 172°
2026-05-06 02:30 51.03307 -114.16345 7787 ft 238 kts 181°
2026-05-06 02:30 51.01648 -114.16354 7595 ft 236 kts 181°
2026-05-06 02:30 51.00038 -114.16159 7351 ft 234 kts 164°
2026-05-06 02:30 50.98620 -114.14978 6866 ft 232 kts 136°
2026-05-06 02:31 50.97720 -114.12889 6310 ft 226 kts 109°
2026-05-06 02:31 50.97524 -114.10495 6026 ft 216 kts 85°
2026-05-06 02:31 50.97950 -114.08296 5801 ft 203 kts 61°
2026-05-06 02:31 50.98837 -114.06663 5606 ft 193 kts 40°
2026-05-06 02:32 50.99856 -114.05362 5425 ft 184 kts 41°
2026-05-06 02:32 51.00827 -114.04106 5258 ft 175 kts 40°
2026-05-06 02:32 51.01740 -114.02926 5112 ft 170 kts 39°
2026-05-06 02:32 51.02830 -114.02178 5031 ft 171 kts 10°
2026-05-06 02:33 51.03965 -114.02209 4986 ft 161 kts 359°
2026-05-06 02:33 51.04728 -114.02269 4673 ft 164 kts
2026-05-06 02:33 51.07303 -114.02174 4037 ft 154 kts
2026-05-06 02:34 51.08371 -114.02117 3888 ft 153 kts
2026-05-06 02:34 51.09425 -114.02148 3682 ft 151 kts
2026-05-06 02:34 51.10472 -114.02146 3555 ft 148 kts
2026-05-06 02:34 51.11358 -114.02086 3558 ft 105 kts 358°
2026-05-06 02:35 51.11929 -114.02126 3560 ft 61 kts 359°
2026-05-06 02:35 51.12330 -114.02131 3560 ft 55 kts
2026-05-06 02:35 51.12576 -114.02135 3555 ft 16 kts
2026-05-06 02:35 51.12682 -114.02102 3557 ft 15 kts 19°
2026-05-06 02:36 51.12769 -114.02044 3558 ft 11 kts 24°
2026-05-06 02:36 51.12820 -114.02002 3556 ft 7 kts 29°
2026-05-06 02:36 51.12856 -114.01968 3559 ft 5 kts 31°
2026-05-06 02:36 51.12881 -114.01937 3559 ft 4 kts 48°
2026-05-06 02:37 51.12889 -114.01906 3559 ft 4 kts 74°
2026-05-06 02:37 51.12893 -114.01827 3559 ft 9 kts 88°
2026-05-06 02:37 51.12894 -114.01737 3559 ft 8 kts 89°
2026-05-06 02:37 51.12894 -114.01657 3559 ft 7 kts 90°
2026-05-06 02:38 51.12895 -114.01584 3559 ft 8 kts 89°
2026-05-06 02:38 51.12919 -114.01504 3558 ft 8 kts 34°
2026-05-06 02:38 51.12965 -114.01469 3557 ft 7 kts 27°
2026-05-06 02:38 51.13003 -114.01431 3559 ft 6 kts 36°
2026-05-06 02:39 51.13042 -114.01382 3559 ft 7 kts 43°
2026-05-06 02:39 51.13057 -114.01318 3559 ft 6 kts 86°
2026-05-06 02:39 51.13044 -114.01266 3559 ft 5 kts 129°
2026-05-06 02:39 51.13024 -114.01237 3559 ft 3 kts 136°
2026-05-06 02:40 51.13019 -114.01229 3559 ft 0 kts 135°
2026-05-06 02:40 51.13017 -114.01225 3559 ft 0 kts 135°